GFSNE_850_dewp_243.txt.gz
Dewpoint
1 1 1 1 0 -0 -0 -1 -1 -0 -0 -1 -1 -2 -1 -2 -2 1 -0 -0 -3 -2 -1 -0 -0 -2 -6 -2 -2 -1 2 4 6 7 6 5 4 4
1 1 1 1 0 0 -0 -1 -0 1 0 -2 -2 -1 -1 -1 -1 -0 1 -1 -2 -2 -2 -1 0 -1 -6 -6 -3 -1 -0 2 5 5 6 6 4 5
1 1 0 0 0 -0 -1 -1 0 1 0 -2 -1 -2 -1 -2 -2 -1 -0 -1 -2 -2 -2 -2 -1 -2 -4 -4 -3 0 -0 1 2 5 6 6 5 5
0 0 -0 -1 -0 -0 -1 -1 -0 -0 -1 -1 -2 -1 -1 -1 -1 -1 -0 -1 -1 -2 -2 -2 -1 -2 -4 -1 -2 -2 1 0 2 3 5 6 5 5
-0 -0 -0 -0 -0 -1 -0 -1 -1 -1 -1 -2 -2 -2 -3 -3 -3 -3 -2 -1 -0 -1 -1 -1 -3 -1 -5 -1 -1 -3 -2 -1 2 3 3 6 5 4
-5 -2 -2 -1 -1 -4 -4 -3 -3 -3 -3 -3 -3 -3 -3 -3 -4 -4 -3 -2 -1 -1 -1 -1 -2 -1 -1 -2 -2 -2 -3 -2 2 3 3 4 5 5
-10 -9 -7 -7 -7 -6 -5 -5 -4 -4 -4 -5 -5 -4 -4 -4 -4 -4 -4 -4 -2 -2 -1 -1 -1 -2 -4 -2 -2 -4 1 -2 2 2 3 3 5 5
-10 -10 -9 -8 -6 -6 -7 -6 -5 -5 -5 -6 -5 -5 -5 -5 -4 -4 -3 -3 -3 -3 -2 -2 -2 -5 -4 -3 -4 -4 -2 1 1 1 2 4 4 4
-18 -15 -11 -6 -8 -7 -6 -5 -6 -6 -6 -6 -6 -5 -5 -4 -4 -4 -4 -4 -4 -3 -3 -3 -4 -4 -4 -4 -4 -4 -3 -1 -0 3 3 5 4 3
-13 -10 -8 -9 -8 -7 -7 -6 -6 -6 -6 -5 -5 -4 -5 -4 -4 -4 -4 -4 -4 -3 -3 -4 -3 -4 -4 -4 -3 -3 -3 -0 1 3 2 4 4 4
-17 -13 -12 -10 -9 -9 -7 -7 -6 -6 -5 -4 -4 -4 -4 -4 -4 -4 -4 -4 -4 -4 -4 -4 -4 -4 -4 -3 -3 -4 -4 -0 1 2 3 3 3 3
-21 -19 -14 -9 -8 -8 -7 -6 -6 -5 -5 -4 -5 -6 -5 -4 -4 -4 -4 -4 -4 -4 -4 -4 -4 -3 -3 -3 -3 -1 -2 1 2 2 3 2 2 3
-22 -19 -12 -7 -9 -9 -6 -6 -5 -5 -5 -5 -5 -5 -5 -5 -5 -5 -5 -5 -5 -5 -5 -4 -4 -4 -4 -4 -3 -2 1 2 2 1 1 1 3 3
-22 -17 -10 -9 -10 -8 -5 -5 -5 -5 -5 -5 -5 -5 -5 -6 -6 -6 -6 -5 -5 -5 -4 -4 -4 -4 -4 -5 -6 -5 -3 -2 -1 -2 -3 -2 -2 -2
-22 -17 -10 -9 -8 -6 -6 -6 -5 -5 -5 -6 -6 -6 -6 -6 -7 -7 -6 -6 -6 -5 -5 -5 -5 -5 -5 -6 -7 -7 -6 -6 -5 -4 -4 -5 -5 -3
-21 -16 -11 -9 -6 -6 -6 -6 -6 -6 -6 -6 -6 -6 -6 -6 -6 -7 -7 -6 -7 -6 -5 -5 -5 -5 -5 -6 -7 -7 -7 -7 -7 -6 -5 -4 -3 -2
-21 -16 -9 -8 -7 -6 -6 -6 -6 -6 -6 -6 -7 -7 -7 -7 -6 -7 -7 -6 -6 -7 -6 -6 -6 -6 -6 -7 -7 -7 -7 -6 -5 -5 -4 -5 -5 -5
-21 -10 -6 -7 -7 -6 -6 -6 -6 -6 -7 -7 -7 -7 -7 -7 -7 -6 -7 -6 -7 -7 -7 -6 -6 -7 -7 -7 -7 -7 -7 -7 -7 -7 -6 -7 -8 -7
-14 -8 -7 -6 -7 -7 -7 -7 -7 -7 -7 -7 -7 -7 -7 -7 -7 -7 -7 -7 -7 -7 -7 -7 -7 -7 -7 -8 -8 -8 -8 -8 -8 -7 -7 -7 -7 -8
-16 -12 -7 -7 -7 -7 -7 -7 -7 -7 -7 -7 -7 -7 -7 -7 -7 -7 -7 -7 -7 -7 -7 -7 -7 -7 -8 -8 -9 -8 -8 -7 -7 -7 -7 -7 -7 -8
-18 -22 -11 -7 -8 -8 -8 -7 -7 -7 -7 -7 -7 -7 -7 -7 -7 -7 -7 -7 -7 -7 -7 -7 -7 -8 -8 -9 -9 -9 -9 -8 -7 -7 -8 -8 -9 -10
-16 -19 -22 -11 -8 -8 -8 -8 -7 -7 -7 -7 -7 -7 -7 -7 -7 -8 -7 -7 -8 -8 -8 -8 -8 -7 -8 -9 -9 -9 -9 -9 -9 -9 -9 -9 -9 -10
-14 -16 -18 -19 -9 -8 -8 -7 -7 -7 -7 -7 -7 -7 -7 -7 -8 -7 -8 -8 -8 -8 -8 -8 -8 -8 -8 -9 -9 -9 -9 -9 -10 -10 -9 -10 -11 -12

GFSNE_850_dewp_249.txt.gz
Dewpoint
-7 -4 -7 -8 -5 -5 -3 -1 0 1 0 -3 -1 -1 -2 -2 -3 -2 -5 -8 -9 -9 -9 -8 -4 -1 -2 -1 -1 -1 -2 -6 -10 -9 -8 -7 -2 2
-8 -8 -9 -8 -6 -5 -3 -2 -3 -1 0 -1 -2 -2 -4 -6 -7 -7 -8 -9 -9 -9 -8 -7 -6 -3 -0 -0 0 -1 -2 -4 -9 -8 -8 -6 -1 1
-10 -12 -10 -7 -6 -5 -5 -5 -3 -1 -0 -3 -4 -7 -10 -10 -11 -9 -8 -5 -5 -6 -6 -6 -3 -2 -2 -0 -0 -0 -1 -3 -8 -8 -8 -6 -2 0
-14 -14 -12 -10 -8 -7 -7 -5 -3 -3 -5 -7 -15 -14 -11 -8 -7 -6 -6 -6 -6 -7 -7 -6 -6 -6 -4 -2 -1 -1 -2 -3 -7 -7 -8 -6 -4 -1
-15 -14 -11 -10 -9 -9 -10 -10 -11 -13 -12 -6 -11 -8 -6 -6 -6 -6 -6 -6 -6 -6 -6 -6 -6 -6 -4 -2 -1 -1 -1 -2 -6 -8 -7 -6 -5 -3
-14 -12 -12 -15 -19 -21 -20 -19 -16 -10 -8 -6 -6 -6 -6 -6 -6 -6 -6 -6 -6 -6 -6 -5 -5 -3 -4 -4 -4 -3 -3 -4 -6 -5 -5 -6 -4 -2
-12 -21 -22 -22 -24 -23 -19 -18 -12 -10 -9 -7 -7 -7 -6 -6 -5 -5 -5 -5 -5 -5 -5 -5 -5 -6 -5 -5 -5 -5 -6 -5 -5 -5 -5 -5 -3 -1
-24 -22 -22 -24 -23 -21 -16 -15 -11 -9 -8 -7 -6 -6 -6 -5 -5 -6 -6 -6 -6 -5 -5 -5 -5 -5 -5 -4 -4 -5 -5 -5 -5 -5 -6 -5 -4 -1
-23 -23 -23 -23 -20 -17 -15 -15 -11 -9 -7 -6 -6 -6 -6 -6 -6 -6 -6 -6 -6 -6 -6 -5 -5 -4 -4 -4 -5 -5 -5 -5 -5 -5 -6 -5 -3 1
-22 -22 -23 -24 -22 -19 -17 -12 -10 -9 -6 -6 -6 -6 -6 -6 -6 -6 -6 -6 -6 -6 -6 -6 -5 -5 -5 -5 -5 -5 -5 -4 -3 -4 -5 -4 -1 2
-21 -22 -23 -24 -21 -19 -13 -10 -9 -7 -7 -6 -6 -6 -6 -6 -7 -6 -7 -7 -7 -7 -7 -5 -6 -6 -5 -6 -5 -5 -5 -1 -1 -2 -0 -0 0 2
-20 -21 -23 -23 -22 -17 -12 -8 -6 -7 -6 -6 -6 -6 -6 -6 -7 -6 -7 -7 -7 -7 -7 -7 -7 -6 -6 -6 -5 -6 -4 -0 0 1 1 2 1 -1
-19 -20 -21 -23 -22 -16 -14 -8 -7 -7 -6 -6 -6 -7 -7 -7 -7 -7 -6 -7 -7 -7 -7 -7 -7 -6 -6 -6 -5 -6 -4 -1 0 1 1 1 1 1
-18 -19 -20 -22 -22 -17 -13 -7 -7 -7 -7 -7 -7 -7 -7 -7 -7 -7 -7 -7 -6 -7 -6 -6 -7 -6 -6 -5 -6 -7 -5 -3 -1 -1 -1 -1 -1 -1
-18 -18 -18 -21 -24 -17 -13 -7 -7 -7 -7 -7 -7 -7 -7 -7 -7 -7 -7 -7 -7 -6 -6 -6 -6 -6 -6 -6 -7 -7 -6 -5 -3 -2 -1 -1 -2 -2
-16 -16 -17 -20 -23 -23 -11 -8 -7 -7 -7 -7 -7 -7 -7 -7 -7 -7 -7 -7 -7 -7 -7 -6 -6 -6 -7 -7 -7 -7 -6 -7 -6 -4 -2 -2 -2 -1
-14 -15 -16 -17 -21 -24 -21 -10 -8 -7 -7 -7 -7 -7 -7 -7 -7 -7 -7 -7 -7 -7 -8 -7 -7 -7 -7 -8 -8 -8 -7 -7 -6 -6 -4 -4 -5 -5
-12 -13 -14 -16 -18 -21 -18 -8 -8 -8 -8 -7 -8 -7 -7 -7 -7 -7 -7 -7 -7 -7 -7 -7 -7 -7 -8 -8 -8 -7 -7 -7 -7 -6 -6 -6 -7 -7
-10 -11 -13 -15 -17 -18 -21 -10 -8 -8 -8 -7 -8 -8 -8 -7 -7 -7 -7 -7 -7 -8 -7 -7 -7 -8 -9 -9 -9 -8 -8 -7 -6 -5 -5 -4 -5 -5
-9 -9 -11 -13 -15 -16 -17 -18 -10 -8 -8 -8 -8 -8 -8 -7 -7 -7 -7 -7 -8 -8 -7 -7 -8 -8 -9 -9 -9 -9 -8 -7 -6 -6 -6 -6 -7 -6
-8 -8 -9 -11 -13 -15 -15 -16 -12 -9 -8 -8 -8 -8 -8 -7 -7 -7 -7 -7 -8 -8 -7 -7 -8 -8 -9 -9 -9 -8 -8 -7 -6 -6 -6 -6 -7 -7
-8 -8 -8 -10 -12 -13 -14 -14 -16 -15 -9 -8 -8 -8 -8 -8 -7 -8 -8 -7 -8 -8 -7 -7 -8 -8 -8 -9 -9 -8 -8 -8 -7 -7 -6 -7 -7 -8
-8 -8 -7 -8 -10 -11 -13 -14 -16 -20 -13 -9 -8 -9 -8 -8 -7 -8 -8 -8 -7 -8 -8 -8 -8 -8 -8 -8 -9 -8 -9 -8 -9 -8 -8 -8 -8 -8

GFSNE_850_dewp_252.txt.gz
Dewpoint
-15 -11 -9 -9 -7 -6 -4 -5 -3 -0 -1 -7 -7 -7 -7 -7 -12 -15 -15 -14 -12 -11 -10 -10 -9 -9 -8 -7 -5 -4 -1 -0 -0 -0 -1 -2 -7 -10
-11 -9 -10 -10 -11 -10 -10 -9 -7 -4 -1 -6 -8 -9 -12 -18 -14 -11 -10 -9 -9 -8 -8 -8 -8 -7 -7 -7 -5 -3 -1 -0 -1 -1 -1 -2 -6 -10
-10 -11 -13 -12 -12 -12 -12 -12 -10 -9 -9 -17 -20 -23 -19 -13 -11 -9 -8 -7 -8 -8 -7 -7 -7 -7 -6 -6 -6 -6 -2 -1 -2 -1 -1 -3 -6 -10
-12 -11 -12 -13 -13 -13 -14 -17 -18 -19 -20 -22 -21 -16 -12 -9 -8 -7 -7 -7 -8 -8 -7 -7 -7 -6 -5 -4 -4 -3 -2 -2 -1 -1 -1 -2 -6 -10
-12 -13 -14 -13 -13 -22 -25 -24 -25 -26 -22 -16 -14 -11 -9 -7 -8 -7 -7 -8 -6 -5 -7 -7 -6 -5 -6 -5 -5 -4 -4 -4 -3 -4 -4 -4 -8 -9
-12 -13 -13 -19 -26 -26 -27 -27 -27 -22 -15 -12 -11 -10 -7 -7 -6 -7 -7 -6 -6 -6 -6 -6 -6 -7 -6 -5 -4 -4 -4 -5 -5 -5 -6 -6 -7 -8
-12 -13 -23 -24 -26 -28 -29 -28 -22 -16 -13 -11 -8 -6 -6 -6 -6 -6 -6 -6 -6 -6 -6 -7 -7 -7 -6 -4 -4 -4 -4 -5 -5 -5 -6 -6 -6 -7
-14 -22 -23 -25 -27 -28 -27 -24 -18 -13 -11 -7 -6 -6 -6 -6 -6 -6 -7 -7 -6 -7 -7 -7 -6 -6 -6 -6 -6 -5 -5 -6 -6 -6 -6 -6 -6 -7
-20 -21 -23 -25 -27 -26 -26 -21 -15 -11 -8 -6 -6 -6 -6 -6 -6 -7 -7 -7 -7 -8 -7 -7 -7 -7 -8 -7 -6 -5 -6 -6 -6 -5 -5 -5 -7 -6
-20 -22 -23 -25 -26 -28 -24 -20 -17 -13 -9 -8 -6 -6 -6 -6 -6 -7 -7 -7 -7 -8 -8 -7 -8 -8 -7 -8 -6 -5 -6 -6 -3 -1 -2 -4 -5 -4
-21 -22 -23 -25 -26 -26 -22 -19 -16 -11 -10 -8 -7 -7 -6 -7 -7 -7 -7 -7 -7 -8 -8 -7 -8 -8 -8 -7 -6 -5 -6 -4 -1 -0 0 -0 -1 -1
-20 -21 -22 -24 -26 -23 -18 -18 -14 -12 -9 -7 -7 -7 -7 -7 -7 -7 -7 -7 -7 -7 -7 -7 -8 -7 -7 -6 -7 -7 -6 -2 -1 0 1 1 1 1
-20 -20 -21 -23 -24 -22 -21 -16 -11 -9 -8 -7 -7 -7 -7 -7 -8 -8 -7 -6 -7 -7 -7 -7 -7 -6 -7 -7 -7 -7 -6 -3 -2 -1 -0 -0 1 2
-19 -19 -20 -21 -23 -21 -18 -14 -12 -9 -9 -9 -8 -7 -7 -8 -8 -8 -8 -8 -7 -7 -7 -6 -6 -7 -7 -8 -7 -7 -6 -4 -3 -2 -1 -1 1 1
-18 -18 -18 -19 -22 -23 -22 -17 -12 -10 -9 -9 -8 -8 -7 -7 -8 -8 -8 -8 -8 -7 -7 -7 -7 -7 -7 -8 -8 -8 -7 -6 -4 -3 -3 -1 -2 -1
-16 -16 -16 -17 -20 -22 -23 -23 -14 -10 -9 -8 -8 -8 -8 -8 -8 -8 -8 -8 -8 -7 -8 -8 -8 -8 -8 -8 -8 -8 -7 -7 -5 -4 -4 -3 -3 -3
-14 -14 -14 -15 -17 -19 -21 -24 -20 -11 -10 -9 -8 -8 -8 -8 -8 -8 -8 -8 -7 -7 -8 -8 -7 -8 -8 -8 -9 -8 -8 -7 -6 -5 -3 -4 -4 -4
-12 -12 -13 -13 -15 -16 -18 -19 -21 -16 -12 -10 -9 -8 -8 -8 -7 -8 -8 -8 -8 -7 -8 -8 -8 -8 -9 -9 -9 -8 -7 -7 -6 -5 -5 -3 -5 -5
-10 -10 -10 -12 -13 -15 -16 -16 -18 -20 -12 -10 -9 -9 -8 -8 -7 -8 -8 -8 -8 -8 -8 -8 -8 -8 -9 -9 -9 -9 -8 -7 -6 -6 -6 -6 -7 -6
-9 -9 -9 -10 -12 -13 -14 -15 -16 -19 -19 -13 -9 -9 -9 -8 -8 -8 -8 -8 -8 -8 -7 -8 -8 -8 -10 -10 -10 -10 -9 -8 -7 -8 -7 -6 -6 -5
-8 -8 -8 -9 -10 -12 -13 -13 -14 -16 -18 -16 -10 -9 -9 -8 -8 -8 -8 -8 -8 -8 -7 -7 -8 -8 -9 -9 -9 -9 -9 -9 -8 -8 -8 -7 -7 -6
-8 -8 -8 -8 -8 -10 -11 -12 -13 -15 -17 -19 -16 -10 -9 -9 -8 -8 -8 -8 -8 -8 -8 -8 -8 -8 -8 -9 -9 -9 -9 -9 -9 -8 -7 -7 -7 -8
-7 -8 -8 -8 -7 -7 -8 -11 -12 -14 -15 -19 -19 -13 -9 -9 -8 -8 -8 -8 -8 -8 -8 -8 -9 -8 -8 -8 -8 -8 -8 -8 -8 -7 -7 -6 -6 -7

GFSNE_850_dewp_258.txt.gz
Dewpoint
-8 -13 -15 -13 -12 -14 -14 -13 -9 -10 -13 -18 -23 -29 -32 -31 -28 -24 -21 -17 -14 -12 -12 -11 -10 -10 -10 -10 -9 -8 -8 -5 -4 -3 -3 -2 -2 -1
-9 -12 -10 -9 -11 -11 -10 -9 -11 -12 -10 -19 -27 -30 -29 -27 -26 -21 -16 -14 -12 -11 -11 -11 -11 -10 -9 -8 -7 -5 -5 -6 -7 -7 -6 -3 -3 -2
-8 -8 -6 -5 -6 -7 -6 -8 -11 -12 -19 -27 -30 -28 -27 -26 -22 -17 -13 -11 -11 -12 -10 -11 -9 -9 -9 -9 -7 -7 -6 -7 -6 -6 -4 -4 -4 -4
-9 -7 -4 -6 -4 -2 -3 -8 -9 -20 -26 -30 -30 -27 -24 -21 -17 -14 -12 -11 -12 -11 -10 -10 -9 -9 -9 -8 -7 -6 -6 -6 -5 -5 -5 -5 -4 -4
-5 -4 -7 -2 0 -1 -5 -9 -14 -24 -27 -26 -26 -23 -21 -18 -16 -14 -12 -12 -11 -10 -10 -10 -9 -9 -8 -8 -8 -8 -7 -7 -5 -5 -5 -5 -5 -4
-4 -4 -1 1 2 0 -6 -12 -19 -24 -27 -24 -22 -20 -19 -15 -11 -11 -11 -11 -10 -10 -10 -10 -9 -9 -8 -8 -8 -8 -7 -7 -7 -6 -6 -6 -6 -6
-3 -2 1 2 2 -3 -13 -21 -23 -28 -28 -25 -21 -20 -16 -13 -11 -10 -10 -9 -10 -10 -10 -10 -10 -9 -8 -8 -8 -7 -7 -7 -7 -7 -7 -7 -7 -6
-2 1 2 2 -1 -15 -19 -23 -26 -28 -28 -24 -21 -16 -14 -10 -9 -9 -9 -7 -8 -10 -9 -11 -9 -10 -9 -8 -7 -8 -8 -7 -7 -7 -5 -4 -4 -3
1 2 1 1 -2 -13 -21 -24 -25 -26 -26 -21 -19 -13 -12 -9 -9 -9 -8 -8 -8 -9 -9 -10 -10 -10 -9 -9 -9 -8 -8 -7 -7 -6 -4 -3 -2 -2
1 2 1 -0 -11 -20 -23 -23 -22 -24 -20 -20 -15 -12 -9 -8 -8 -8 -8 -8 -9 -10 -8 -8 -9 -9 -10 -9 -9 -8 -7 -6 -6 -5 -4 -2 -2 -1
2 1 -1 -10 -19 -23 -24 -23 -24 -23 -20 -16 -14 -11 -9 -8 -8 -8 -9 -8 -9 -9 -9 -8 -8 -8 -10 -9 -9 -8 -7 -7 -6 -5 -4 -3 -2 -1
0 -1 -7 -19 -22 -23 -23 -23 -24 -23 -20 -14 -12 -10 -9 -8 -8 -8 -8 -9 -8 -8 -8 -8 -8 -8 -8 -9 -9 -9 -7 -6 -5 -5 -4 -2 -2 -1
-1 -6 -18 -21 -22 -23 -23 -24 -23 -25 -20 -16 -12 -10 -9 -9 -9 -9 -9 -9 -8 -8 -8 -8 -8 -9 -9 -9 -9 -9 -8 -7 -6 -5 -3 -1 -2 -0
-5 -17 -20 -21 -21 -22 -23 -24 -25 -25 -20 -15 -13 -12 -10 -9 -9 -9 -9 -9 -9 -8 -9 -8 -8 -9 -9 -9 -9 -9 -8 -7 -6 -5 -3 -1 0 0
-18 -19 -19 -19 -20 -22 -23 -24 -25 -25 -21 -17 -14 -11 -10 -9 -9 -9 -9 -9 -9 -9 -9 -8 -8 -8 -9 -9 -9 -8 -8 -8 -6 -5 -3 -2 -1 -2
-16 -18 -18 -18 -20 -21 -22 -24 -25 -25 -23 -18 -13 -12 -10 -9 -9 -9 -9 -9 -10 -10 -9 -8 -8 -9 -9 -10 -9 -8 -8 -8 -7 -5 -4 -3 -3 -2
-17 -17 -17 -17 -17 -18 -20 -21 -22 -23 -22 -16 -16 -14 -11 -9 -9 -8 -9 -9 -9 -9 -9 -9 -9 -10 -10 -10 -9 -8 -8 -8 -7 -6 -4 -3 -3 -3
-16 -16 -16 -15 -15 -15 -16 -17 -18 -20 -20 -20 -19 -16 -12 -10 -9 -8 -9 -9 -9 -9 -9 -9 -9 -10 -10 -10 -9 -9 -9 -9 -8 -7 -5 -4 -5 -4
-15 -15 -14 -13 -13 -13 -13 -14 -15 -16 -18 -19 -21 -18 -13 -10 -9 -9 -9 -8 -9 -9 -8 -9 -9 -9 -10 -10 -10 -9 -9 -8 -8 -6 -5 -5 -6 -6
-13 -13 -12 -11 -11 -11 -11 -12 -12 -13 -15 -17 -19 -19 -16 -11 -10 -9 -8 -8 -9 -9 -9 -9 -9 -9 -10 -10 -10 -9 -9 -8 -8 -8 -7 -4 -4 -3
-12 -11 -10 -8 -8 -9 -9 -10 -11 -12 -13 -14 -16 -18 -19 -15 -11 -9 -8 -8 -8 -9 -9 -9 -9 -8 -9 -9 -9 -9 -9 -9 -8 -8 -7 -5 -4 -4
-11 -10 -8 -8 -8 -8 -9 -9 -10 -11 -11 -13 -14 -16 -17 -20 -17 -10 -8 -8 -9 -9 -9 -9 -9 -8 -9 -9 -9 -9 -8 -8 -7 -7 -7 -6 -5 -7
-10 -9 -9 -8 -8 -8 -8 -11 -12 -10 -10 -11 -12 -14 -16 -18 -19 -12 -9 -8 -9 -9 -9 -9 -9 -8 -8 -9 -8 -8 -7 -7 -6 -5 -7 -6 -6 -6

GFSNE_850_dewp_261.txt.gz
Dewpoint
12 9 4 -6 -12 -13 -11 -13 -17 -11 -13 -17 -17 -24 -28 -33 -32 -30 -29 -26 -19 -15 -12 -12 -13 -12 -11 -11 -10 -10 -8 -6 -4 -4 -4 -3 -3 -2
9 7 -1 -9 -10 -9 -11 -14 -7 -12 -12 -14 -16 -22 -28 -30 -31 -29 -25 -21 -15 -13 -13 -12 -12 -11 -11 -10 -9 -8 -8 -8 -7 -5 -5 -4 -4 -3
5 -3 -6 -5 -5 -8 -10 -3 -3 -9 -11 -10 -12 -15 -22 -30 -30 -26 -22 -16 -13 -14 -12 -12 -10 -10 -10 -9 -9 -8 -8 -8 -8 -7 -5 -5 -4 -4
1 -3 -3 -3 -3 -8 -1 -4 0 -2 -6 -4 -15 -21 -25 -27 -26 -24 -18 -13 -13 -13 -12 -11 -10 -10 -9 -9 -9 -8 -8 -8 -8 -7 -7 -5 -5 -5
1 -2 -2 -1 -6 -4 2 2 2 0 -5 -19 -23 -24 -25 -23 -24 -19 -15 -12 -13 -12 -11 -12 -11 -10 -10 -9 -9 -9 -8 -8 -7 -7 -7 -6 -5 -5
0 -0 2 -2 -2 1 2 2 1 -2 -20 -25 -23 -21 -21 -20 -18 -15 -14 -12 -12 -12 -11 -11 -10 -11 -11 -10 -10 -8 -8 -8 -8 -7 -6 -6 -6 -6
1 1 -1 -2 -0 2 2 2 -2 -12 -25 -25 -20 -19 -19 -17 -14 -11 -11 -11 -12 -11 -11 -11 -6 -7 -9 -10 -9 -9 -9 -8 -7 -7 -6 -7 -7 -5
2 0 -2 -2 2 2 2 -10 -10 -24 -25 -22 -19 -19 -17 -14 -12 -11 -10 -8 -9 -10 -11 -11 -9 -8 -10 -10 -10 -9 -9 -8 -7 -7 -6 -6 -5 -4
2 0 -1 2 2 2 -2 -8 -23 -26 -25 -24 -19 -18 -15 -13 -12 -11 -9 -9 -9 -10 -9 -10 -8 -10 -11 -10 -10 -9 -9 -8 -7 -6 -6 -6 -4 -3
2 -1 -0 2 1 1 -4 -20 -26 -26 -26 -23 -19 -15 -13 -12 -10 -10 -9 -10 -10 -10 -8 -7 -7 -9 -11 -11 -10 -9 -9 -8 -7 -5 -5 -5 -4 -3
-0 0 2 1 1 -3 -18 -25 -24 -24 -24 -23 -18 -14 -12 -10 -9 -9 -9 -9 -10 -10 -8 -8 -7 -8 -11 -11 -10 -9 -8 -8 -6 -5 -5 -4 -3 -3
0 1 1 1 -4 -16 -23 -24 -23 -24 -23 -19 -16 -13 -11 -10 -9 -9 -9 -9 -9 -8 -7 -8 -8 -8 -8 -10 -10 -9 -8 -7 -5 -5 -4 -3 -2 -2
1 0 -0 -3 -9 -22 -24 -23 -23 -25 -22 -18 -16 -13 -10 -10 -9 -9 -9 -9 -9 -8 -7 -8 -8 -8 -9 -9 -10 -9 -7 -6 -6 -5 -3 -1 -1 -2
1 -0 -2 -6 -21 -23 -23 -24 -26 -25 -21 -19 -15 -13 -11 -12 -10 -9 -9 -9 -9 -9 -8 -8 -9 -8 -9 -9 -9 -9 -7 -7 -6 -5 -3 -1 -0 -0
-0 -2 -7 -21 -21 -22 -23 -25 -26 -22 -20 -19 -16 -15 -14 -12 -10 -10 -9 -9 -10 -10 -9 -9 -10 -10 -10 -10 -9 -9 -9 -7 -7 -5 -4 -3 -2 -1
-3 -6 -13 -20 -20 -21 -23 -25 -24 -22 -21 -20 -19 -17 -15 -12 -11 -10 -10 -10 -10 -10 -9 -9 -10 -10 -10 -10 -9 -9 -8 -9 -7 -6 -5 -3 -3 -3
-8 -9 -19 -18 -19 -19 -21 -22 -23 -23 -22 -20 -20 -19 -16 -13 -12 -10 -9 -9 -9 -9 -9 -10 -10 -10 -10 -10 -10 -9 -9 -8 -8 -7 -5 -3 -3 -3
-5 -16 -17 -18 -18 -19 -19 -19 -20 -21 -22 -22 -22 -22 -18 -16 -12 -10 -9 -9 -9 -8 -9 -9 -10 -10 -8 -9 -9 -8 -8 -8 -8 -7 -4 -4 -5 -5
-11 -17 -17 -16 -16 -16 -16 -16 -17 -18 -19 -20 -21 -22 -20 -19 -14 -10 -9 -9 -9 -9 -9 -9 -9 -10 -8 -9 -9 -9 -8 -8 -8 -8 -6 -5 -6 -6
-17 -16 -15 -14 -14 -14 -13 -14 -14 -15 -16 -17 -18 -19 -21 -22 -18 -11 -9 -9 -9 -9 -9 -9 -9 -9 -9 -10 -10 -9 -8 -8 -8 -8 -7 -5 -4 -3
-15 -14 -13 -12 -12 -11 -12 -12 -12 -12 -13 -14 -15 -17 -19 -21 -21 -14 -10 -9 -9 -9 -9 -9 -9 -9 -9 -9 -9 -8 -8 -8 -7 -7 -6 -4 -3 -3
-11 -6 -11 -9 -9 -9 -10 -10 -10 -10 -11 -12 -13 -14 -16 -19 -21 -20 -13 -8 -9 -9 -9 -9 -9 -9 -8 -8 -8 -8 -7 -7 -7 -5 -5 -4 -5 -6
-5 -8 -8 -8 -9 -9 -9 -9 -10 -10 -10 -11 -11 -13 -15 -17 -19 -21 -18 -10 -9 -9 -9 -9 -9 -9 -9 -8 -7 -7 -7 -6 -5 -5 -6 -5 -5 -6